User: anonymous   Login
Location: Unspecified
(0.0000°N, 0.0000°E)
Time: 21:35:50
(UTC+00:00)
Language:

Radarsat - Orbit

View from above orbital plane
View from above orbital plane
View from above satellite
View from above satellite

Ground track
Ground track

The orbit data is extracted from the following two-line orbital elements,

1 23710U 95059A   18267.90208024 +.00000061 +00000-0 +39951-4 0  9998
2 23710 098.5765 275.5594 0001293 089.6451 270.4880 14.30717637194642
Epoch (UTC): 24 September 2018 21:38:59
Eccentricity: 0.0001293
inclination: 98.5765°
perigee height: 788 km
apogee height: 790 km
right ascension of ascending node: 275.5594°
argument of perigee: 89.6451°
revolutions per day: 14.30717637
mean anomaly at epoch: 270.4880°
orbit number at epoch: 19464

The dashed part of the orbit path shows where the satellite is in the earth's shadow,  

DLR